Total_Precipitation_Accumulation
0.71 0.42 0.48 0.46 0.41 0.43 0.41 0.46 0.51 0.51 0.47 0.44 0.40 0.37 0.35 0.39 0.43 0.50 0.55 0.61 0.74 0.88 0.96 1.03 1.09 1.07 1.09 1.10 1.18 1.32 1.28 1.31 1.45 1.53 1.61 1.58 1.64 1.76 1.71 1.52 1.48 1.25 1.21
0.54 0.40 0.50 0.45 0.42 0.43 0.44 0.47 0.50 0.54 0.52 0.52 0.47 0.42 0.42 0.44 0.46 0.56 0.62 0.68 0.83 0.91 0.94 1.03 1.09 1.07 0.99 0.98 1.07 1.20 1.13 1.19 1.52 1.72 1.78 1.66 1.76 1.97 1.94 1.75 1.84 1.65 1.24
0.40 0.39 0.48 0.45 0.42 0.47 0.48 0.52 0.53 0.58 0.57 0.55 0.55 0.51 0.51 0.54 0.57 0.61 0.72 0.80 0.93 1.02 1.04 1.11 1.15 1.11 1.03 0.95 1.05 1.15 1.12 1.19 1.66 2.00 2.22 2.13 2.04 2.18 2.01 1.86 1.74 1.56 1.22
0.49 0.59 0.55 0.44 0.43 0.48 0.49 0.55 0.57 0.60 0.65 0.66 0.68 0.63 0.59 0.62 0.68 0.69 0.77 0.85 0.99 1.21 1.20 1.13 1.14 1.14 1.03 0.98 1.10 1.13 1.13 1.29 1.85 2.29 2.55 2.41 2.45 2.61 2.23 1.93 1.79 1.59 1.39
0.56 0.68 0.62 0.50 0.48 0.48 0.55 0.55 0.59 0.64 0.70 0.74 0.79 0.86 0.80 0.67 0.69 0.73 0.82 0.92 1.04 1.22 1.45 1.33 1.19 1.20 1.05 1.03 1.13 1.15 1.20 1.47 2.00 2.27 2.53 2.82 3.17 3.18 2.42 2.03 1.91 1.78 1.61
0.56 0.61 0.60 0.57 0.56 0.55 0.59 0.61 0.69 0.77 0.80 0.80 0.85 0.92 1.00 0.84 0.81 0.83 0.97 1.07 1.15 1.23 1.39 1.61 1.44 1.45 1.33 1.13 1.15 1.17 1.34 1.66 1.87 2.01 2.71 3.11 3.14 3.08 2.53 2.18 2.05 2.10 1.93
0.61 0.65 0.75 0.79 0.83 0.83 0.79 0.79 0.85 0.89 0.93 0.95 0.92 0.93 1.06 1.01 0.96 1.02 1.14 1.22 1.32 1.36 1.43 1.49 1.42 1.53 1.36 1.17 1.18 1.22 1.42 1.69 1.72 2.02 2.65 3.13 3.00 2.90 2.69 2.47 2.30 2.30 2.13
0.75 0.83 0.97 1.10 1.20 1.11 1.04 0.99 1.00 0.98 0.96 1.00 1.10 1.06 1.08 1.15 1.15 1.11 1.20 1.33 1.52 1.60 1.60 1.59 1.50 1.48 1.43 1.34 1.29 1.29 1.43 1.55 1.51 1.88 2.40 2.73 2.67 2.61 2.75 2.58 2.43 2.34 2.21
1.15 1.24 1.22 1.15 1.14 1.16 1.14 1.09 1.14 1.13 1.09 1.10 1.21 1.26 1.18 1.21 1.27 1.30 1.40 1.47 1.52 1.53 1.53 1.61 1.70 1.59 1.43 1.39 1.41 1.42 1.52 1.65 1.69 1.92 2.26 2.65 2.59 2.76 2.94 2.70 2.40 2.34 2.38
2.02 2.26 1.75 1.37 1.22 1.11 1.12 1.22 1.27 1.42 1.38 1.28 1.30 1.40 1.42 1.43 1.47 1.54 1.57 1.59 1.56 1.57 1.53 1.67 1.79 1.81 1.68 1.54 1.49 1.51 1.62 1.62 1.45 1.81 2.38 2.52 2.62 2.98 3.26 3.07 2.73 2.53 2.44
2.74 2.95 2.21 1.72 1.50 1.40 1.39 1.42 1.49 1.65 1.74 1.60 1.49 1.53 1.67 1.81 2.05 2.05 1.83 1.85 1.74 1.77 1.77 1.82 1.89 1.90 1.97 1.96 1.86 1.80 1.73 1.51 1.73 1.99 2.21 2.47 2.83 3.30 3.49 3.33 2.98 2.76 2.62
2.80 2.62 2.35 2.15 1.85 1.70 1.65 1.85 1.94 1.87 1.91 1.77 1.92 1.84 2.00 2.51 2.68 2.36 2.29 2.20 2.06 2.09 2.18 2.21 2.17 2.13 2.03 2.06 2.26 2.27 1.85 1.75 1.94 2.13 2.25 2.42 2.77 3.32 3.56 3.39 3.13 3.03 2.96
3.29 2.80 2.52 2.28 2.19 2.06 2.18 2.38 2.47 2.55 2.57 2.36 2.47 2.43 2.52 2.69 2.64 2.64 2.62 2.49 2.48 2.47 2.68 2.78 2.59 2.31 2.16 2.19 2.27 2.32 2.18 2.13 2.12 2.19 2.33 2.58 2.85 3.32 3.63 3.50 3.24 3.17 3.19
3.46 3.34 2.80 2.62 2.72 2.95 2.99 2.91 2.84 2.83 2.92 2.84 2.84 2.67 2.79 2.90 2.91 2.83 2.86 2.77 2.81 2.75 2.95 2.99 2.95 2.81 2.63 2.45 2.37 2.49 2.58 2.57 2.41 2.44 2.70 2.82 2.82 3.15 3.61 3.65 3.50 3.40 3.44
3.50 3.40 3.09 3.25 3.38 3.46 3.50 3.46 3.20 3.11 3.33 3.34 3.29 3.17 3.17 3.07 2.95 2.96 2.93 2.93 2.81 2.95 3.08 3.15 3.02 2.90 2.83 2.67 2.47 2.46 2.62 2.66 2.79 2.82 2.91 2.96 2.74 2.90 3.43 3.84 3.93 3.96 3.92
3.45 3.68 3.63 3.74 3.64 3.57 3.64 3.81 3.85 3.52 3.64 3.85 3.95 3.79 3.59 3.42 3.34 3.34 3.40 3.35 3.10 3.12 3.24 3.37 3.28 3.16 2.91 2.76 2.59 2.58 2.60 2.56 2.71 2.89 2.96 3.01 2.86 2.81 3.25 3.79 4.17 4.36 4.36
3.67 3.73 3.79 3.69 3.86 3.98 4.01 3.99 4.05 3.94 3.87 4.02 4.21 4.23 3.89 3.60 3.69 3.70 3.82 3.77 3.43 3.38 3.51 3.63 3.63 3.52 3.14 2.85 2.79 2.83 2.83 2.85 2.73 2.73 2.94 3.04 2.91 2.91 3.15 3.36 3.69 3.99 4.21
3.70 4.03 3.98 3.58 3.97 4.19 4.16 4.11 3.90 3.97 4.21 4.40 4.42 4.53 4.22 3.84 3.73 3.91 3.81 3.64 3.57 3.67 3.92 4.10 4.02 3.95 3.74 3.49 3.31 3.00 2.84 2.84 2.76 2.86 2.85 2.90 3.20 3.10 3.08 2.97 3.16 3.51 3.81
3.89 4.37 4.18 3.92 4.09 4.22 4.26 4.32 4.05 4.13 4.45 4.59 4.71 4.72 4.29 3.88 3.82 4.09 4.13 4.10 3.98 4.03 4.14 3.96 4.14 4.03 4.16 3.97 3.48 3.22 3.00 2.87 2.82 2.81 2.88 2.85 2.99 3.12 3.07 2.88 2.96 3.23 3.47
4.19 4.89 4.47 4.06 4.06 4.36 4.37 4.22 4.18 4.31 4.60 4.89 4.95 4.76 4.46 4.31 4.17 4.37 4.33 4.38 4.41 4.50 4.38 4.33 4.38 4.17 4.06 4.00 3.61 3.40 3.16 2.86 2.80 2.73 2.64 2.71 2.78 2.67 2.72 2.72 2.86 2.80 3.07
4.13 4.61 4.58 4.39 4.43 4.50 4.53 4.31 4.44 4.62 4.91 5.19 5.13 5.05 4.93 4.83 4.77 4.87 4.90 4.86 4.70 4.61 4.49 4.39 4.38 4.28 4.01 3.86 3.87 3.52 3.03 2.59 2.38 2.28 2.30 2.39 2.39 2.35 2.46 2.64 2.81 2.77 2.68
3.85 4.11 4.42 4.57 4.59 4.35 4.69 4.99 5.26 5.59 5.61 5.87 6.14 6.17 5.98 5.69 5.51 5.37 5.37 5.04 4.73 4.60 4.46 4.33 4.26 4.12 3.77 3.66 3.72 3.73 3.21 2.73 2.20 1.90 1.99 1.98 2.04 2.21 2.28 2.21 2.35 2.43 2.36
3.65 4.00 4.34 4.69 4.81 4.73 5.17 5.67 6.15 6.52 6.43 6.45 6.42 6.40 6.31 5.90 5.59 5.38 5.15 4.95 4.75 4.58 4.42 4.39 4.30 4.17 3.85 3.65 3.61 3.84 3.60 3.09 2.49 2.12 1.91 1.92 2.03 2.17 2.13 2.06 2.06 2.06 2.11
3.37 3.78 4.11 4.54 4.96 5.26 5.64 6.07 6.60 6.97 7.19 7.00 6.63 6.34 5.98 5.54 5.20 4.84 4.66 4.69 4.58 4.38 4.19 3.90 3.79 3.80 3.74 3.56 3.47 3.34 3.24 3.10 2.87 2.53 2.22 2.18 2.22 2.21 2.11 2.07 2.13 2.22 2.22
3.13 3.48 3.92 4.28 4.68 5.30 6.06 6.61 7.10 7.46 7.49 6.95 6.33 5.73 5.29 4.91 4.57 4.32 4.23 4.35 4.25 4.00 3.83 3.57 3.38 3.23 3.23 3.28 3.28 3.19 3.04 2.90 2.68 2.53 2.35 2.23 2.21 2.15 2.06 2.02 2.09 2.21 2.27
2.87 3.13 3.63 4.19 4.53 5.07 5.83 6.43 6.78 6.97 6.93 6.50 5.84 5.27 4.84 4.38 4.00 3.68 3.46 3.41 3.33 3.17 3.08 3.05 3.01 2.97 2.96 3.01 3.03 2.97 2.87 2.78 2.68 2.64 2.48 2.23 2.19 2.22 2.14 2.00 1.90 1.92 1.97